FW9262 Weather Reports


Display with metric or nautical units.
time (UTC)temp
F
wind
direction
speed
MPH
gust
MPH
rain 1hr
in
rain 24hr
in
rain mn
in
humidity
%
barometer
mb
20260831024442 72 253 2.0 3.0 0.00 0.00 0.00 78 1013.6
20260831023937 73 239 3.0 4.0 0.00 0.00 0.00 77 1013.2
20260831023435 73 272 2.0 2.0 0.00 0.00 0.00 77 1013.2
20260831022930 73 324 0.0 2.0 0.00 0.00 0.00 77 1013.2
20260831022429 73 259 2.0 2.0 0.00 0.00 0.00 77 1013.2
20260831021924 73 195 1.0 2.0 0.00 0.00 0.00 77 1013.2
20260831021424 73 343 0.0 1.0 0.00 0.00 0.00 77 1013.2
20260831020920 73 288 1.0 2.0 0.00 0.00 0.00 77 1013.2
20260831020419 74 340 2.0 4.0 0.00 0.00 0.00 76 1013.2
20260831015914 74 303 2.0 3.0 0.00 0.00 0.00 75 1013.2
20260831015410 74 274 2.0 2.0 0.00 0.00 0.00 75 1012.9
20260831014910 74 339 1.0 3.0 0.00 0.00 0.00 74 1012.9
20260831014405 74 222 4.0 4.0 0.00 0.00 0.00 74 1012.9
20260831013901 75 340 1.0 2.0 0.00 0.00 0.00 75 1013.2
20260831013356 75 294 1.0 2.0 0.00 0.00 0.00 74 1013.2
20260831012850 75 338 0.0 1.0 0.00 0.00 0.00 75 1013.2
20260831012345 75 323 1.0 3.0 0.00 0.00 0.00 75 1012.9
20260831011840 75 327 2.0 3.0 0.00 0.00 0.00 75 1013.2
20260831011335 76 233 4.0 4.0 0.00 0.00 0.00 75 1012.9
20260831010831 76 344 1.0 2.0 0.00 0.00 0.00 75 1013.2
20260831010330 75 343 0.0 1.0 0.00 0.00 0.00 76 1013.2
20260831005826 75 314 1.0 3.0 0.00 0.00 0.00 76 1013.2
20260831005321 75 281 3.0 6.0 0.00 0.00 0.00 76 1013.2
20260831004816 76 309 2.0 3.0 0.00 0.00 0.00 76 1013.2
20260831004312 76 236 2.0 4.0 0.00 0.00 0.00 77 1013.2
20260831003808 77 354 4.0 7.0 0.00 0.00 0.00 75 1013.2
20260831003304 77 347 2.0 3.0 0.00 0.00 0.00 73 1012.9
20260831002803 77 333 0.0 3.0 0.00 0.00 0.00 76 1013.2
20260831002305 76 300 2.0 6.0 0.00 0.00 0.00 77 1013.2
20260831001758 77 259 4.0 7.0 0.00 0.00 0.00 75 1013.2
20260831001253 78 228 4.0 6.0 0.00 0.00 0.00 73 1013.2
20260831000751 78 329 2.0 3.0 0.00 0.00 0.00 73 1013.2
20260831000250 77 321 2.0 7.0 0.00 0.00 0.00 76 1013.2
20260830235749 77 105 3.0 6.0 0.00 0.00 0.00 76 1013.2
20260830235244 77 268 4.0 4.0 0.00 0.00 0.00 75 1013.2
20260830234739 77 282 2.0 4.0 0.00 0.00 0.00 75 1013.2
20260830234235 79 282 2.0 4.0 0.00 0.00 0.00 73 1013.2
20260830233731 79 341 0.0 2.0 0.00 0.00 0.00 73 1013.2
20260830233226 79 216 4.0 6.0 0.00 0.00 0.00 72 1012.9
20260830232721 80 246 4.0 7.0 0.00 0.00 0.00 71 1013.2
20260830232217 80 321 1.0 4.0 0.00 0.00 0.00 72 1013.2
20260830231714 81 320 2.0 3.0 0.00 0.00 0.00 70 1013.2
20260830231213 81 306 4.0 7.0 0.00 0.00 0.00 71 1013.2
20260830230708 81 332 2.0 8.0 0.00 0.00 0.00 71 1013.2
20260830230203 81 264 4.0 4.0 0.00 0.00 0.00 70 1013.2
20260830225657 81 245 1.0 2.0 0.00 0.00 0.00 70 1013.2
20260830225152 81 179 3.0 7.0 0.00 0.00 0.00 70 1013.2
20260830224650 81 272 3.0 6.0 0.00 0.00 0.00 70 1013.2
20260830224147 81 342 3.0 6.0 0.00 0.00 0.00 70 1013.6
20260830223643 81 276 2.0 8.0 0.00 0.00 0.00 71 1013.6
20260830223138 82 294 2.0 6.0 0.00 0.00 0.00 71 1013.9
20260830222632 82 12 1.0 7.0 0.00 0.00 0.00 71 1013.6
20260830222129 82 178 2.0 7.0 0.00 0.00 0.00 70 1013.6
20260830221624 84 314 1.0 3.0 0.00 0.00 0.00 67 1013.9
20260830221120 82 181 1.0 7.0 0.00 0.00 0.00 71 1013.9
20260830220615 82 267 3.0 8.0 0.00 0.00 0.00 71 1013.9
20260830220114 82 243 5.0 7.0 0.00 0.00 0.00 69 1013.9
20260830215613 82 256 2.0 3.0 0.00 0.00 0.00 70 1013.9
20260830215108 82 264 2.0 4.0 0.00 0.00 0.00 69 1014.3
20260830214603 83 285 2.0 4.0 0.00 0.00 0.00 69 1014.3
20260830214058 81 317 1.0 7.0 0.00 0.00 0.00 72 1014.3
20260830213557 83 269 3.0 8.0 0.00 0.00 0.00 69 1014.3
20260830213053 82 217 3.0 7.0 0.00 0.00 0.00 70 1014.3
20260830212549 82 276 4.0 6.0 0.00 0.00 0.00 68 1014.3
20260830212048 83 279 2.0 9.0 0.00 0.00 0.00 69 1014.6
20260830211543 82 217 3.0 6.0 0.00 0.00 0.00 68 1014.6
20260830211038 82 249 4.0 7.0 0.00 0.00 0.00 69 1014.6
20260830210533 83 303 3.0 6.0 0.00 0.00 0.00 68 1014.6
20260830210032 83 283 4.0 8.0 0.00 0.00 0.00 67 1014.6
20260830205530 82 258 4.0 7.0 0.00 0.00 0.00 68 1014.6
20260830205026 82 298 3.0 6.0 0.00 0.00 0.00 67 1014.9
20260830204525 82 264 4.0 6.0 0.00 0.00 0.00 67 1014.6
20260830204024 82 242 5.0 9.0 0.00 0.00 0.00 68 1014.6
20260830203521 83 259 2.0 7.0 0.00 0.00 0.00 67 1014.9
20260830203016 82 352 1.0 4.0 0.00 0.00 0.00 69 1014.9
20260830202515 82 198 2.0 7.0 0.00 0.00 0.00 67 1014.9
20260830202012 83 242 4.0 6.0 0.00 0.00 0.00 67 1014.6
20260830201510 84 327 2.0 4.0 0.00 0.00 0.00 67 1014.6
20260830201006 82 209 4.0 6.0 0.00 0.00 0.00 67 1014.6
20260830200506 83 245 4.0 6.0 0.00 0.00 0.00 66 1014.6
20260830200005 82 288 3.0 6.0 0.00 0.00 0.00 66 1014.6
20260830195501 82 254 4.0 8.0 0.00 0.00 0.00 66 1014.9
20260830194959 83 286 3.0 7.0 0.00 0.00 0.00 65 1014.9
20260830194459 83 243 2.0 6.0 0.00 0.00 0.00 65 1014.6
20260830193953 83 189 5.0 7.0 0.00 0.00 0.00 66 1014.9
20260830193453 82 295 4.0 6.0 0.00 0.00 0.00 67 1014.9
20260830192948 82 201 3.0 7.0 0.00 0.00 0.00 68 1014.9
20260830192443 83 245 4.0 6.0 0.00 0.00 0.00 65 1014.9
20260830191938 83 327 0.0 7.0 0.00 0.00 0.00 65 1014.9
20260830191438 83 254 2.0 6.0 0.00 0.00 0.00 64 1014.9
20260830190934 84 236 2.0 6.0 0.00 0.00 0.00 64 1015.3
20260830190429 84 271 1.0 7.0 0.00 0.00 0.00 64 1014.9
20260830185928 83 301 5.0 6.0 0.00 0.00 0.00 62 1014.9
20260830185423 83 308 0.0 3.0 0.00 0.00 0.00 62 1014.9
20260830184919 84 258 5.0 7.0 0.00 0.00 0.00 62 1014.9
20260830184418 84 288 4.0 7.0 0.00 0.00 0.00 62 1014.9
20260830183917 84 246 2.0 4.0 0.00 0.00 0.00 63 1014.9
20260830183412 84 256 3.0 4.0 0.00 0.00 0.00 62 1014.9
20260830182908 84 237 2.0 6.0 0.00 0.00 0.00 62 1014.9
20260830182403 83 274 3.0 4.0 0.00 0.00 0.00 63 1014.9
20260830181859 83 282 3.0 3.0 0.00 0.00 0.00 62 1014.9
20260830181354 83 312 3.0 7.0 0.00 0.00 0.00 63 1015.3
20260830180849 84 303 4.0 4.0 0.00 0.00 0.00 62 1014.9
20260830180343 84 295 1.0 4.0 0.00 0.00 0.00 63 1014.9
20260830175842 84 280 2.0 7.0 0.00 0.00 0.00 63 1014.9
20260830175337 84 190 2.0 6.0 0.00 0.00 0.00 64 1015.3
20260830174832 85 320 3.0 6.0 0.00 0.00 0.00 62 1015.3
20260830174327 86 258 0.0 3.0 0.00 0.00 0.00 58 1014.9
20260830173827 86 343 1.0 3.0 0.00 0.00 0.00 58 1014.9
20260830173322 86 81 2.0 2.0 0.00 0.00 0.00 56 1014.9
20260830172819 85 41 1.0 2.0 0.00 0.00 0.00 57 1014.9
20260830172315 84 308 1.0 2.0 0.00 0.00 0.00 58 1014.9
20260830171811 85 301 1.0 2.0 0.00 0.00 0.00 56 1014.9
20260830171306 85 46 1.0 2.0 0.00 0.00 0.00 54 1014.9
20260830170801 85 46 1.0 2.0 0.00 0.00 0.00 57 1014.6
20260830170300 84 356 0.0 2.0 0.00 0.00 0.00 59 1014.9
20260830165759 83 359 1.0 2.0 0.00 0.00 0.00 60 1014.6
20260830165255 83 33 1.0 2.0 0.00 0.00 0.00 60 1014.9
20260830164751 84 354 0.0 2.0 0.00 0.00 0.00 59 1014.6
20260830164247 84 216 1.0 2.0 0.00 0.00 0.00 58 1014.9
20260830163743 84 347 0.0 2.0 0.00 0.00 0.00 59 1014.9
20260830163239 84 12 1.0 2.0 0.00 0.00 0.00 58 1014.9
20260830162733 84 340 0.0 3.0 0.00 0.00 0.00 60 1014.9
20260830162229 84 70 2.0 3.0 0.00 0.00 0.00 60 1014.9
20260830161725 83 348 0.0 2.0 0.00 0.00 0.00 63 1014.9
20260830161219 82 353 1.0 4.0 0.00 0.00 0.00 65 1014.9
20260830160715 82 19 0.0 0.0 0.00 0.00 0.00 65 1014.9
20260830160215 82 356 2.0 2.0 0.00 0.00 0.00 65 1014.9
20260830155711 81 350 0.0 2.0 0.00 0.00 0.00 67 1014.9
20260830155207 81 16 0.0 1.0 0.00 0.00 0.00 67 1014.9
20260830154702 80 20 0.0 3.0 0.00 0.00 0.00 69 1014.9
20260830154157 79 346 0.0 2.0 0.00 0.00 0.00 70 1014.9
20260830153654 80 48 2.0 3.0 0.00 0.00 0.00 70 1014.9
20260830153154 79 359 0.0 1.0 0.00 0.00 0.00 70 1014.9
20260830152653 80 30 2.0 2.0 0.00 0.00 0.00 70 1014.9
20260830152152 79 349 1.0 2.0 0.00 0.00 0.00 71 1015.3
20260830151648 78 338 1.0 3.0 0.00 0.00 0.00 73 1015.3
20260830151147 78 344 2.0 2.0 0.00 0.00 0.00 74 1014.9
20260830150642 78 37 1.0 3.0 0.00 0.00 0.00 74 1015.3
20260830150136 78 37 1.0 1.0 0.00 0.00 0.00 73 1015.3
20260830145636 78 351 1.0 2.0 0.00 0.00 0.00 75 1014.9
20260830145131 76 359 1.0 1.0 0.00 0.00 0.00 77 1014.9
20260830144626 75 351 0.0 1.0 0.00 0.00 0.00 79 1014.9
20260830144122 74 357 1.0 1.0 0.00 0.00 0.00 83 1015.3
20260830143618 73 340 0.0 1.0 0.00 0.00 0.00 87 1014.9
20260830143116 72 350 0.0 1.0 0.00 0.00 0.00 90 1014.9
20260830142612 71 342 0.0 0.0 0.00 0.00 0.00 92 1014.9
20260830142106 71 347 0.0 0.0 0.00 0.00 0.00 92 1014.9
20260830141602 70 342 0.0 0.0 0.00 0.00 0.00 92 1014.9
20260830141057 70 346 0.0 0.0 0.00 0.00 0.00 92 1014.9
20260830140551 69 340 0.0 0.0 0.00 0.00 0.00 92 1014.9
20260830140047 69 339 0.0 0.0 0.00 0.00 0.00 92 1014.6
20260830135541 69 342 0.0 0.0 0.00 0.00 0.00 92 1014.6
20260830135036 69 338 0.0 0.0 0.00 0.00 0.00 92 1014.6
20260830134533 69 346 0.0 0.0 0.00 0.00 0.00 91 1014.6
20260830134027 69 345 0.0 0.0 0.00 0.00 0.00 91 1014.6
20260830133523 69 348 0.0 0.0 0.00 0.00 0.00 91 1014.3
20260830133018 69 339 0.0 0.0 0.00 0.00 0.00 91 1014.3
20260830132514 69 335 0.0 0.0 0.00 0.00 0.00 91 1014.3
20260830132014 69 339 0.0 0.0 0.00 0.00 0.00 91 1014.3
20260830131513 69 338 0.0 0.0 0.00 0.00 0.00 91 1014.3
20260830131008 69 339 0.0 0.0 0.00 0.00 0.00 91 1014.3
20260830130503 69 336 0.0 0.0 0.00 0.00 0.00 91 1014.3
20260830130003 69 340 0.0 0.0 0.00 0.00 0.00 91 1014.3
20260830125458 69 340 0.0 0.0 0.00 0.00 0.00 91 1014.3
20260830124956 70 340 0.0 0.0 0.00 0.00 0.00 91 1014.3
20260830124451 70 336 0.0 0.0 0.00 0.00 0.00 91 1013.9
20260830123947 69 339 0.0 0.0 0.00 0.00 0.00 90 1013.9
20260830123444 69 343 0.0 0.0 0.00 0.00 0.00 90 1013.9
20260830122942 69 343 0.0 0.0 0.00 0.00 0.00 90 1013.9
20260830122441 70 344 0.0 0.0 0.00 0.00 0.00 90 1014.3
20260830121936 70 338 0.0 0.0 0.00 0.00 0.00 90 1014.3
20260830121431 70 336 0.0 0.0 0.00 0.00 0.00 90 1013.9
20260830120926 70 338 0.0 0.0 0.00 0.00 0.00 90 1013.9
20260830120421 70 338 0.0 0.0 0.00 0.00 0.00 90 1013.9
20260830115918 70 338 0.0 0.0 0.00 0.00 0.00 90 1013.9
20260830115414 70 336 0.0 0.0 0.00 0.00 0.00 90 1013.9
20260830114909 70 336 0.0 0.0 0.00 0.00 0.00 90 1013.9
20260830114406 70 342 0.0 0.0 0.00 0.00 0.00 89 1013.6
20260830113905 70 342 0.0 0.0 0.00 0.00 0.00 89 1013.6
20260830113401 70 338 0.0 0.0 0.00 0.00 0.00 89 1013.6
20260830112856 70 338 0.0 0.0 0.00 0.00 0.00 89 1013.9
20260830112352 70 341 0.0 0.0 0.00 0.00 0.00 89 1013.6
20260830111848 71 341 0.0 0.0 0.00 0.00 0.00 89 1013.6
20260830111343 71 336 0.0 0.0 0.00 0.00 0.00 89 1013.6
20260830110843 71 339 0.0 0.0 0.00 0.00 0.00 89 1013.9
20260830110340 71 339 0.0 0.0 0.00 0.00 0.00 89 1013.9
20260830105838 71 338 0.0 0.0 0.00 0.00 0.00 89 1013.9
20260830105335 71 336 0.0 0.0 0.00 0.00 0.00 89 1013.6
20260830104831 71 338 0.0 0.0 0.00 0.00 0.00 89 1013.6
20260830104328 71 339 0.0 0.0 0.00 0.00 0.00 88 1013.9
20260830103826 71 341 0.0 0.0 0.00 0.00 0.00 88 1013.9
20260830103323 71 345 0.0 0.0 0.00 0.00 0.00 88 1013.6
20260830102821 71 336 0.0 0.0 0.00 0.00 0.00 89 1013.9
20260830102317 71 338 0.0 0.0 0.00 0.00 0.00 89 1013.6
20260830101812 71 339 0.0 0.0 0.00 0.00 0.00 89 1013.9
20260830101308 71 300 0.0 1.0 0.00 0.00 0.00 89 1013.9
20260830100807 71 297 0.0 1.0 0.00 0.00 0.00 90 1013.9
20260830100301 71 339 0.0 0.0 0.00 0.00 0.00 90 1013.6
20260830095800 71 334 0.0 1.0 0.00 0.00 0.00 90 1013.6
20260830095257 71 338 0.0 1.0 0.00 0.00 0.00 90 1013.6
20260830094752 71 345 0.0 2.0 0.00 0.00 0.00 90 1013.9
20260830094248 71 336 0.0 0.0 0.00 0.00 0.00 90 1013.6
20260830093743 71 338 0.0 0.0 0.00 0.00 0.00 90 1013.6
20260830093239 71 340 0.0 0.0 0.00 0.00 0.00 89 1013.6
20260830092738 71 341 0.0 0.0 0.00 0.00 0.00 89 1013.6
20260830092236 71 337 0.0 0.0 0.00 0.00 0.00 89 1013.9
20260830091732 71 328 0.0 0.0 0.00 0.00 0.00 89 1013.6
20260830091231 71 342 0.0 0.0 0.00 0.00 0.00 89 1013.9
20260830090730 71 338 0.0 0.0 0.00 0.00 0.00 88 1013.9
20260830090226 71 339 0.0 0.0 0.00 0.00 0.00 88 1013.6
20260830085725 71 338 0.0 0.0 0.00 0.00 0.00 88 1013.6
20260830085221 71 342 0.0 0.0 0.00 0.00 0.00 88 1013.6
20260830084716 71 334 0.0 0.0 0.00 0.00 0.00 88 1013.9
20260830084212 72 349 0.0 0.0 0.00 0.00 0.00 87 1013.6
20260830083707 72 342 0.0 0.0 0.00 0.00 0.00 87 1013.6
20260830083202 72 348 0.0 0.0 0.00 0.00 0.00 87 1013.6
20260830082701 72 351 0.0 0.0 0.00 0.00 0.00 87 1013.6
20260830082157 72 347 0.0 0.0 0.00 0.00 0.00 87 1013.6
20260830081653 72 343 0.0 0.0 0.00 0.00 0.00 86 1013.6
20260830081152 72 342 0.0 0.0 0.00 0.00 0.00 86 1013.6
20260830080647 72 335 0.0 0.0 0.00 0.00 0.00 86 1013.9
20260830080143 72 322 0.0 0.0 0.00 0.00 0.00 86 1013.6
20260830075642 72 351 0.0 0.0 0.00 0.00 0.00 85 1013.9
20260830075137 72 338 0.0 0.0 0.00 0.00 0.00 85 1013.6
20260830074633 72 340 0.0 0.0 0.00 0.00 0.00 85 1013.9
20260830074129 72 344 0.0 1.0 0.00 0.00 0.00 84 1013.6
20260830073625 72 341 0.0 1.0 0.00 0.00 0.00 84 1013.6
20260830073120 72 336 0.0 0.0 0.00 0.00 0.00 84 1013.6
20260830072615 72 320 0.0 1.0 0.00 0.00 0.00 84 1013.6
20260830072115 72 341 0.0 3.0 0.00 0.00 0.00 84 1013.9
20260830071610 72 291 0.0 1.0 0.00 0.00 0.00 83 1013.9
20260830071108 72 343 0.0 0.0 0.00 0.00 0.00 83 1013.9
20260830070603 72 344 0.0 0.0 0.00 0.00 0.00 83 1013.9
20260830070058 72 336 0.0 0.0 0.00 0.00 0.00 83 1013.6
20260830065557 72 340 0.0 0.0 0.00 0.00 0.00 83 1013.6
20260830065055 72 333 0.0 0.0 0.00 0.00 0.00 82 1013.9
20260830064550 72 341 0.0 0.0 0.00 0.00 0.00 82 1013.6
20260830064045 72 342 0.0 0.0 0.00 0.00 0.00 82 1013.2
20260830063539 72 341 0.0 1.0 0.00 0.00 0.00 82 1013.2
20260830063039 71 349 0.0 2.0 0.00 0.00 0.00 83 1013.2
20260830062539 71 341 0.0 0.0 0.00 0.00 0.00 83 1013.6
20260830062033 72 336 0.0 0.0 0.00 0.00 0.00 83 1013.2
20260830061528 72 326 0.0 0.0 0.00 0.00 0.00 84 1013.2
20260830061025 72 339 0.0 0.0 0.00 0.00 0.00 84 1013.2
20260830060520 72 354 1.0 1.0 0.00 0.00 0.00 84 1013.2
20260830060017 72 278 2.0 2.0 0.00 0.00 0.00 84 1013.2
20260830055512 72 348 0.0 1.0 0.00 0.00 0.00 84 1012.9
20260830055008 72 335 0.0 1.0 0.00 0.00 0.00 84 1013.2
20260830054503 72 329 1.0 1.0 0.00 0.00 0.00 84 1013.2
20260830053959 72 327 0.0 2.0 0.00 0.00 0.00 84 1013.2
20260830053454 72 327 0.0 1.0 0.00 0.00 0.00 84 1013.2
20260830052952 73 328 1.0 3.0 0.00 0.00 0.00 83 1013.2
20260830052448 73 309 1.0 1.0 0.00 0.00 0.00 82 1013.2
20260830051943 73 338 0.0 1.0 0.00 0.00 0.00 82 1013.2
20260830051438 73 261 0.0 1.0 0.00 0.00 0.00 80 1013.2
20260830050938 73 332 1.0 2.0 0.00 0.00 0.00 79 1013.2
20260830050434 73 302 1.0 1.0 0.00 0.00 0.00 79 1013.2
20260830045931 73 205 1.0 3.0 0.00 0.00 0.00 79 1013.2
20260830045427 73 329 1.0 3.0 0.00 0.00 0.00 79 1013.2
20260830044926 73 222 1.0 2.0 0.00 0.00 0.00 80 1013.6
20260830044422 73 341 0.0 1.0 0.00 0.00 0.00 79 1013.6
20260830043916 73 342 0.0 0.0 0.00 0.00 0.00 79 1013.2
20260830043411 73 344 0.0 0.0 0.00 0.00 0.00 79 1013.2
20260830042909 73 337 0.0 1.0 0.00 0.00 0.00 79 1013.2
20260830042358 73 343 0.0 0.0 0.00 0.00 0.00 79 1013.2
20260830041857 73 337 0.0 0.0 0.00 0.00 0.00 79 1012.9
20260830041356 73 319 1.0 1.0 0.00 0.00 0.00 79 1013.2
20260830040852 73 331 1.0 2.0 0.00 0.00 0.00 80 1013.2
20260830040348 74 311 0.0 1.0 0.00 0.00 0.00 81 1013.2
20260830035847 74 330 0.0 1.0 0.00 0.00 0.00 81 1012.9
20260830035345 74 305 1.0 1.0 0.00 0.00 0.00 80 1013.2
20260830034841 74 334 0.0 2.0 0.00 0.00 0.00 80 1013.2
20260830034336 74 266 2.0 4.0 0.00 0.00 0.00 80 1013.2
20260830033832 73 312 1.0 4.0 0.00 0.00 0.00 81 1012.9
20260830033331 73 323 1.0 3.0 0.00 0.00 0.00 82 1013.2
20260830032827 74 290 1.0 1.0 0.00 0.00 0.00 83 1012.9
20260830032327 74 311 0.0 2.0 0.00 0.00 0.00 82 1012.9
20260830031822 74 257 2.0 3.0 0.00 0.00 0.00 81 1012.9
20260830031317 74 325 2.0 4.0 0.00 0.00 0.00 81 1012.9
20260830030807 74 286 2.0 2.0 0.00 0.00 0.00 80 1012.6
20260830030303 74 311 1.0 3.0 0.00 0.00 0.00 80 1012.9
20260830025802 74 273 2.0 3.0 0.00 0.00 0.00 78 1012.6
20260830025301 74 256 3.0 3.0 0.00 0.00 0.00 77 1012.6